Location: Beaver Brook Trail
(44.0290°N, 71.8137°W)
Time: 01:11:54
(UTC+00:00)

Vanguard 1 Rocket - Pass Details

Date: 19 November 2024
Orbit: 650 x 4218 km, 34.3° (Epoch: 08 December)

Event Time Altitude Azimuth Distance (km) Brightness Sun altitude
Rises 22:29:48 0° 279° (W) 6,836 13.2 -13.0°
Reaches altitude 10° 22:38:09 10° 259° (WSW) 4,889 12.6 -14.5°
Maximum altitude 22:43:17 13° 235° (SW) 3,987 11.7 -15.4°
Drops below altitude 10° 22:47:23 10° 210° (SSW) 3,717 11.1 -16.1°
Sets 22:51:57 0° 183° (S) 4,097 10.9 -16.9°
